owner,sensor,date,latitude,longitude,vertical_datum,sea_water_practical_salinity,qcFlag 
WAVCIS,ioos:station:WAVCIS:CSI16:1,2011-07-01T00:00:00Z,29.4012,-89.0355,1.0,25.629,11111222 
WAVCIS,ioos:station:WAVCIS:CSI16:1,2011-07-01T00:15:00Z,29.4012,-89.0355,1.0,25.608,11111222 
WAVCIS,ioos:station:WAVCIS:CSI16:1,2011-07-01T00:30:00Z,29.4012,-89.0355,1.0,25.723,11111222 
WAVCIS,ioos:station:WAVCIS:CSI16:1,2011-07-01T00:45:00Z,29.4012,-89.0355,1.0,25.831,11111222 
WAVCIS,ioos:station:WAVCIS:CSI16:1,2011-07-01T01:00:00Z,29.4012,-89.0355,1.0,25.782,11111222 
WAVCIS,ioos:station:WAVCIS:CSI16:1,2011-07-01T01:15:00Z,29.4012,-89.0355,1.0,25.642,11111222 
WAVCIS,ioos:station:WAVCIS:CSI16:1,2011-07-01T01:30:00Z,29.4012,-89.0355,1.0,25.397,11111222 
WAVCIS,ioos:station:WAVCIS:CSI16:1,2011-07-01T01:45:00Z,29.4012,-89.0355,1.0,25.205,11111222 
WAVCIS,ioos:station:WAVCIS:CSI16:1,2011-07-01T02:00:00Z,29.4012,-89.0355,1.0,24.619,11111222 
WAVCIS,ioos:station:WAVCIS:CSI16:1,2011-07-01T02:15:00Z,29.4012,-89.0355,1.0,24.612,11111222 
WAVCIS,ioos:station:WAVCIS:CSI16:1,2011-07-01T02:30:00Z,29.4012,-89.0355,1.0,24.286,11111222 
WAVCIS,ioos:station:WAVCIS:CSI16:1,2011-07-01T02:45:00Z,29.4012,-89.0355,1.0,24.046,11111222 
WAVCIS,ioos:station:WAVCIS:CSI16:1,2011-07-01T03:00:00Z,29.4012,-89.0355,1.0,24.387,11111222 
WAVCIS,ioos:station:WAVCIS:CSI16:1,2011-07-01T03:15:00Z,29.4012,-89.0355,1.0,24.087,11111222 
WAVCIS,ioos:station:WAVCIS:CSI16:1,2011-07-01T03:30:00Z,29.4012,-89.0355,1.0,24.262,11111222 
WAVCIS,ioos:station:WAVCIS:CSI16:1,2011-07-01T03:45:00Z,29.4012,-89.0355,1.0,24.446,11111222 
WAVCIS,ioos:station:WAVCIS:CSI16:1,2011-07-01T04:00:00Z,29.4012,-89.0355,1.0,24.57,11111222 
WAVCIS,ioos:station:WAVCIS:CSI16:1,2011-07-01T04:15:00Z,29.4012,-89.0355,1.0,25.38,11111222 
WAVCIS,ioos:station:WAVCIS:CSI16:1,2011-07-01T04:30:00Z,29.4012,-89.0355,1.0,26.579,11111222 
WAVCIS,ioos:station:WAVCIS:CSI16:1,2011-07-01T04:45:00Z,29.4012,-89.0355,1.0,26.769,11111222 
WAVCIS,ioos:station:WAVCIS:CSI16:1,2011-07-01T05:00:00Z,29.4012,-89.0355,1.0,27.231,11111222 
WAVCIS,ioos:station:WAVCIS:CSI16:1,2011-07-01T05:15:00Z,29.4012,-89.0355,1.0,27.394,11111222 
WAVCIS,ioos:station:WAVCIS:CSI16:1,2011-07-01T05:30:00Z,29.4012,-89.0355,1.0,27.48,11111222 
WAVCIS,ioos:station:WAVCIS:CSI16:1,2011-07-01T05:45:00Z,29.4012,-89.0355,1.0,28.024,11111222 
WAVCIS,ioos:station:WAVCIS:CSI16:1,2011-07-01T06:00:00Z,29.4012,-89.0355,1.0,28.494,11111222 
WAVCIS,ioos:station:WAVCIS:CSI16:1,2011-07-01T06:15:00Z,29.4012,-89.0355,1.0,28.375,11111222 
WAVCIS,ioos:station:WAVCIS:CSI16:1,2011-07-01T06:30:00Z,29.4012,-89.0355,1.0,27.985,11111222 
WAVCIS,ioos:station:WAVCIS:CSI16:1,2011-07-01T06:45:00Z,29.4012,-89.0355,1.0,27.596,11111222 
WAVCIS,ioos:station:WAVCIS:CSI16:1,2011-07-01T07:00:00Z,29.4012,-89.0355,1.0,27.653,11111222 
WAVCIS,ioos:station:WAVCIS:CSI16:1,2011-07-01T07:15:00Z,29.4012,-89.0355,1.0,26.57,11111222 
WAVCIS,ioos:station:WAVCIS:CSI16:1,2011-07-01T07:30:00Z,29.4012,-89.0355,1.0,26.23,11111222 
WAVCIS,ioos:station:WAVCIS:CSI16:1,2011-07-01T07:45:00Z,29.4012,-89.0355,1.0,26.438,11111222 
WAVCIS,ioos:station:WAVCIS:CSI16:1,2011-07-01T08:00:00Z,29.4012,-89.0355,1.0,26.378,11111222 
WAVCIS,ioos:station:WAVCIS:CSI16:1,2011-07-01T08:15:00Z,29.4012,-89.0355,1.0,26.361,11111222 
WAVCIS,ioos:station:WAVCIS:CSI16:1,2011-07-01T08:30:00Z,29.4012,-89.0355,1.0,26.424,11111222 
WAVCIS,ioos:station:WAVCIS:CSI16:1,2011-07-01T08:45:00Z,29.4012,-89.0355,1.0,26.418,11111222 
WAVCIS,ioos:station:WAVCIS:CSI16:1,2011-07-01T09:00:00Z,29.4012,-89.0355,1.0,26.888,11111222 
WAVCIS,ioos:station:WAVCIS:CSI16:1,2011-07-01T09:15:00Z,29.4012,-89.0355,1.0,27.196,11111222 
WAVCIS,ioos:station:WAVCIS:CSI16:1,2011-07-01T09:30:00Z,29.4012,-89.0355,1.0,27.529,11111222 
WAVCIS,ioos:station:WAVCIS:CSI16:1,2011-07-01T09:45:00Z,29.4012,-89.0355,1.0,28.009,11111222 
WAVCIS,ioos:station:WAVCIS:CSI16:1,2011-07-01T10:00:00Z,29.4012,-89.0355,1.0,27.408,11111222 
WAVCIS,ioos:station:WAVCIS:CSI16:1,2011-07-01T10:15:00Z,29.4012,-89.0355,1.0,28.424,11111222 
WAVCIS,ioos:station:WAVCIS:CSI16:1,2011-07-01T10:30:00Z,29.4012,-89.0355,1.0,28.892,11111222 
WAVCIS,ioos:station:WAVCIS:CSI16:1,2011-07-01T10:45:00Z,29.4012,-89.0355,1.0,29.23,11111222 
WAVCIS,ioos:station:WAVCIS:CSI16:1,2011-07-01T11:00:00Z,29.4012,-89.0355,1.0,29.929,11111222 
WAVCIS,ioos:station:WAVCIS:CSI16:1,2011-07-01T11:15:00Z,29.4012,-89.0355,1.0,28.963,11111222 
WAVCIS,ioos:station:WAVCIS:CSI16:1,2011-07-01T11:30:00Z,29.4012,-89.0355,1.0,30.95,11111222 
WAVCIS,ioos:station:WAVCIS:CSI16:1,2011-07-01T11:45:00Z,29.4012,-89.0355,1.0,29.983,11111222 
WAVCIS,ioos:station:WAVCIS:CSI16:1,2011-07-01T12:00:00Z,29.4012,-89.0355,1.0,30.42,11111222 
WAVCIS,ioos:station:WAVCIS:CSI16:1,2011-07-01T12:15:00Z,29.4012,-89.0355,1.0,31.941,11111222 
WAVCIS,ioos:station:WAVCIS:CSI16:1,2011-07-01T12:30:00Z,29.4012,-89.0355,1.0,31.367,11111222 
WAVCIS,ioos:station:WAVCIS:CSI16:1,2011-07-01T12:45:00Z,29.4012,-89.0355,1.0,30.428,11111222 
WAVCIS,ioos:station:WAVCIS:CSI16:1,2011-07-01T13:00:00Z,29.4012,-89.0355,1.0,31.189,11111222 
WAVCIS,ioos:station:WAVCIS:CSI16:1,2011-07-01T13:15:00Z,29.4012,-89.0355,1.0,31.229,11111222 
WAVCIS,ioos:station:WAVCIS:CSI16:1,2011-07-01T13:30:00Z,29.4012,-89.0355,1.0,31.168,11111222 
WAVCIS,ioos:station:WAVCIS:CSI16:1,2011-07-01T13:45:00Z,29.4012,-89.0355,1.0,31.418,11111222 
WAVCIS,ioos:station:WAVCIS:CSI16:1,2011-07-01T14:00:00Z,29.4012,-89.0355,1.0,31.182,11111222 
WAVCIS,ioos:station:WAVCIS:CSI16:1,2011-07-01T14:15:00Z,29.4012,-89.0355,1.0,31.259,11111222 
WAVCIS,ioos:station:WAVCIS:CSI16:1,2011-07-01T14:30:00Z,29.4012,-89.0355,1.0,31.329,11111222 
WAVCIS,ioos:station:WAVCIS:CSI16:1,2011-07-01T14:45:00Z,29.4012,-89.0355,1.0,31.381,11111222 
WAVCIS,ioos:station:WAVCIS:CSI16:1,2011-07-01T15:00:00Z,29.4012,-89.0355,1.0,31.412,11111222 
WAVCIS,ioos:station:WAVCIS:CSI16:1,2011-07-01T15:15:00Z,29.4012,-89.0355,1.0,31.419,11111222 
WAVCIS,ioos:station:WAVCIS:CSI16:1,2011-07-01T15:30:00Z,29.4012,-89.0355,1.0,31.533,11111222 
WAVCIS,ioos:station:WAVCIS:CSI16:1,2011-07-01T15:45:00Z,29.4012,-89.0355,1.0,31.607,11111222 
WAVCIS,ioos:station:WAVCIS:CSI16:1,2011-07-01T16:00:00Z,29.4012,-89.0355,1.0,31.68,11111222 
WAVCIS,ioos:station:WAVCIS:CSI16:1,2011-07-01T16:15:00Z,29.4012,-89.0355,1.0,31.642,11111222 
WAVCIS,ioos:station:WAVCIS:CSI16:1,2011-07-01T16:30:00Z,29.4012,-89.0355,1.0,31.875,11111222 
WAVCIS,ioos:station:WAVCIS:CSI16:1,2011-07-01T16:45:00Z,29.4012,-89.0355,1.0,31.297,11111222 
WAVCIS,ioos:station:WAVCIS:CSI16:1,2011-07-01T17:00:00Z,29.4012,-89.0355,1.0,31.818,11111222 
WAVCIS,ioos:station:WAVCIS:CSI16:1,2011-07-01T17:15:00Z,29.4012,-89.0355,1.0,32.002,11111222 
WAVCIS,ioos:station:WAVCIS:CSI16:1,2011-07-01T17:30:00Z,29.4012,-89.0355,1.0,31.781,11111222 
WAVCIS,ioos:station:WAVCIS:CSI16:1,2011-07-01T17:45:00Z,29.4012,-89.0355,1.0,32.073,11111222 
WAVCIS,ioos:station:WAVCIS:CSI16:1,2011-07-01T18:00:00Z,29.4012,-89.0355,1.0,31.075,11111222 
WAVCIS,ioos:station:WAVCIS:CSI16:1,2011-07-01T18:15:00Z,29.4012,-89.0355,1.0,31.661,11111222 
WAVCIS,ioos:station:WAVCIS:CSI16:1,2011-07-01T18:30:00Z,29.4012,-89.0355,1.0,30.666,11111222 
WAVCIS,ioos:station:WAVCIS:CSI16:1,2011-07-01T18:45:00Z,29.4012,-89.0355,1.0,28.01,11111222 
WAVCIS,ioos:station:WAVCIS:CSI16:1,2011-07-01T19:00:00Z,29.4012,-89.0355,1.0,28.602,11111222 
WAVCIS,ioos:station:WAVCIS:CSI16:1,2011-07-01T19:15:00Z,29.4012,-89.0355,1.0,28.362,11111222 
WAVCIS,ioos:station:WAVCIS:CSI16:1,2011-07-01T19:30:00Z,29.4012,-89.0355,1.0,28.239,11111222 
WAVCIS,ioos:station:WAVCIS:CSI16:1,2011-07-01T19:45:00Z,29.4012,-89.0355,1.0,27.859,11111222 
WAVCIS,ioos:station:WAVCIS:CSI16:1,2011-07-01T20:00:00Z,29.4012,-89.0355,1.0,27.572,11111222 
WAVCIS,ioos:station:WAVCIS:CSI16:1,2011-07-01T20:15:00Z,29.4012,-89.0355,1.0,26.674,11111222 
WAVCIS,ioos:station:WAVCIS:CSI16:1,2011-07-01T20:30:00Z,29.4012,-89.0355,1.0,26.114,11111222 
WAVCIS,ioos:station:WAVCIS:CSI16:1,2011-07-01T20:45:00Z,29.4012,-89.0355,1.0,27.117,11111222 
WAVCIS,ioos:station:WAVCIS:CSI16:1,2011-07-01T21:00:00Z,29.4012,-89.0355,1.0,25.587,11111222 
WAVCIS,ioos:station:WAVCIS:CSI16:1,2011-07-01T21:15:00Z,29.4012,-89.0355,1.0,24.334,11111222 
WAVCIS,ioos:station:WAVCIS:CSI16:1,2011-07-01T21:30:00Z,29.4012,-89.0355,1.0,24.332,11111222 
WAVCIS,ioos:station:WAVCIS:CSI16:1,2011-07-01T21:45:00Z,29.4012,-89.0355,1.0,24.512,11111222 
WAVCIS,ioos:station:WAVCIS:CSI16:1,2011-07-01T22:00:00Z,29.4012,-89.0355,1.0,26.464,11111222 
WAVCIS,ioos:station:WAVCIS:CSI16:1,2011-07-01T22:15:00Z,29.4012,-89.0355,1.0,26.375,11111222 
WAVCIS,ioos:station:WAVCIS:CSI16:1,2011-07-01T22:30:00Z,29.4012,-89.0355,1.0,25.21,11111222 
WAVCIS,ioos:station:WAVCIS:CSI16:1,2011-07-01T22:45:00Z,29.4012,-89.0355,1.0,25.202,11111222 
WAVCIS,ioos:station:WAVCIS:CSI16:1,2011-07-01T23:00:00Z,29.4012,-89.0355,1.0,25.262,11111222 
WAVCIS,ioos:station:WAVCIS:CSI16:1,2011-07-01T23:15:00Z,29.4012,-89.0355,1.0,24.836,11111222 
WAVCIS,ioos:station:WAVCIS:CSI16:1,2011-07-01T23:30:00Z,29.4012,-89.0355,1.0,23.447,11111222 
WAVCIS,ioos:station:WAVCIS:CSI16:1,2011-07-01T23:45:00Z,29.4012,-89.0355,1.0,23.996,11111222 
WAVCIS,ioos:station:WAVCIS:CSI16:1,2011-07-02T00:00:00Z,29.4012,-89.0355,1.0,23.714,11111222 
WAVCIS,ioos:station:WAVCIS:CSI16:1,2011-07-02T00:15:00Z,29.4012,-89.0355,1.0,24.12,11111222 
WAVCIS,ioos:station:WAVCIS:CSI16:1,2011-07-02T00:30:00Z,29.4012,-89.0355,1.0,24.437,11111222 
WAVCIS,ioos:station:WAVCIS:CSI16:1,2011-07-02T00:45:00Z,29.4012,-89.0355,1.0,24.9,11111222 
WAVCIS,ioos:station:WAVCIS:CSI16:1,2011-07-02T01:00:00Z,29.4012,-89.0355,1.0,23.836,11111222 
WAVCIS,ioos:station:WAVCIS:CSI16:1,2011-07-02T01:15:00Z,29.4012,-89.0355,1.0,23.617,11111222 
WAVCIS,ioos:station:WAVCIS:CSI16:1,2011-07-02T01:30:00Z,29.4012,-89.0355,1.0,23.942,11111222 
WAVCIS,ioos:station:WAVCIS:CSI16:1,2011-07-02T01:45:00Z,29.4012,-89.0355,1.0,23.625,11111222 
WAVCIS,ioos:station:WAVCIS:CSI16:1,2011-07-02T02:00:00Z,29.4012,-89.0355,1.0,23.449,11111222 
WAVCIS,ioos:station:WAVCIS:CSI16:1,2011-07-02T02:15:00Z,29.4012,-89.0355,1.0,24.264,11111222 
WAVCIS,ioos:station:WAVCIS:CSI16:1,2011-07-02T02:30:00Z,29.4012,-89.0355,1.0,24.149,11111222 
WAVCIS,ioos:station:WAVCIS:CSI16:1,2011-07-02T02:45:00Z,29.4012,-89.0355,1.0,24.137,11111222 
WAVCIS,ioos:station:WAVCIS:CSI16:1,2011-07-02T03:00:00Z,29.4012,-89.0355,1.0,24.685,11111222 
WAVCIS,ioos:station:WAVCIS:CSI16:1,2011-07-02T03:15:00Z,29.4012,-89.0355,1.0,24.992,11111222 
WAVCIS,ioos:station:WAVCIS:CSI16:1,2011-07-02T03:30:00Z,29.4012,-89.0355,1.0,24.586,11111222 
WAVCIS,ioos:station:WAVCIS:CSI16:1,2011-07-02T03:45:00Z,29.4012,-89.0355,1.0,24.104,11111222 
WAVCIS,ioos:station:WAVCIS:CSI16:1,2011-07-02T04:00:00Z,29.4012,-89.0355,1.0,24.055,11111222 
WAVCIS,ioos:station:WAVCIS:CSI16:1,2011-07-02T04:15:00Z,29.4012,-89.0355,1.0,24.086,11111222 
WAVCIS,ioos:station:WAVCIS:CSI16:1,2011-07-02T04:30:00Z,29.4012,-89.0355,1.0,23.728,11111222 
WAVCIS,ioos:station:WAVCIS:CSI16:1,2011-07-02T04:45:00Z,29.4012,-89.0355,1.0,23.865,11111222 
WAVCIS,ioos:station:WAVCIS:CSI16:1,2011-07-02T05:00:00Z,29.4012,-89.0355,1.0,24.758,11111222 
WAVCIS,ioos:station:WAVCIS:CSI16:1,2011-07-02T05:15:00Z,29.4012,-89.0355,1.0,25.206,11111222 
WAVCIS,ioos:station:WAVCIS:CSI16:1,2011-07-02T05:30:00Z,29.4012,-89.0355,1.0,25.451,11111222 
WAVCIS,ioos:station:WAVCIS:CSI16:1,2011-07-02T05:45:00Z,29.4012,-89.0355,1.0,26.35,11111222 
WAVCIS,ioos:station:WAVCIS:CSI16:1,2011-07-02T06:00:00Z,29.4012,-89.0355,1.0,27.533,11111222 
WAVCIS,ioos:station:WAVCIS:CSI16:1,2011-07-02T06:15:00Z,29.4012,-89.0355,1.0,28.093,11111222 
WAVCIS,ioos:station:WAVCIS:CSI16:1,2011-07-02T06:30:00Z,29.4012,-89.0355,1.0,28.482,11111222 
WAVCIS,ioos:station:WAVCIS:CSI16:1,2011-07-02T06:45:00Z,29.4012,-89.0355,1.0,28.314,11111222 
WAVCIS,ioos:station:WAVCIS:CSI16:1,2011-07-02T07:00:00Z,29.4012,-89.0355,1.0,27.912,11111222 
WAVCIS,ioos:station:WAVCIS:CSI16:1,2011-07-02T07:15:00Z,29.4012,-89.0355,1.0,20.617,11111222 
WAVCIS,ioos:station:WAVCIS:CSI16:1,2011-07-02T07:30:00Z,29.4012,-89.0355,1.0,26.255,11111222 
WAVCIS,ioos:station:WAVCIS:CSI16:1,2011-07-02T07:45:00Z,29.4012,-89.0355,1.0,26.07,11111222 
WAVCIS,ioos:station:WAVCIS:CSI16:1,2011-07-02T08:00:00Z,29.4012,-89.0355,1.0,26.458,11111222 
WAVCIS,ioos:station:WAVCIS:CSI16:1,2011-07-02T08:15:00Z,29.4012,-89.0355,1.0,26.53,11111222 
WAVCIS,ioos:station:WAVCIS:CSI16:1,2011-07-02T08:30:00Z,29.4012,-89.0355,1.0,26.526,11111222 
WAVCIS,ioos:station:WAVCIS:CSI16:1,2011-07-02T08:45:00Z,29.4012,-89.0355,1.0,26.715,11111222 
WAVCIS,ioos:station:WAVCIS:CSI16:1,2011-07-02T09:00:00Z,29.4012,-89.0355,1.0,26.682,11111222 
WAVCIS,ioos:station:WAVCIS:CSI16:1,2011-07-02T09:15:00Z,29.4012,-89.0355,1.0,26.413,11111222 
WAVCIS,ioos:station:WAVCIS:CSI16:1,2011-07-02T09:30:00Z,29.4012,-89.0355,1.0,26.42,11111222 
WAVCIS,ioos:station:WAVCIS:CSI16:1,2011-07-02T09:45:00Z,29.4012,-89.0355,1.0,26.511,11111222 
WAVCIS,ioos:station:WAVCIS:CSI16:1,2011-07-02T10:00:00Z,29.4012,-89.0355,1.0,26.599,11111222 
WAVCIS,ioos:station:WAVCIS:CSI16:1,2011-07-02T10:15:00Z,29.4012,-89.0355,1.0,26.806,11111222 
WAVCIS,ioos:station:WAVCIS:CSI16:1,2011-07-02T10:30:00Z,29.4012,-89.0355,1.0,26.567,11111222 
WAVCIS,ioos:station:WAVCIS:CSI16:1,2011-07-02T10:45:00Z,29.4012,-89.0355,1.0,26.876,11111222 
WAVCIS,ioos:station:WAVCIS:CSI16:1,2011-07-02T11:00:00Z,29.4012,-89.0355,1.0,26.824,11111222 
WAVCIS,ioos:station:WAVCIS:CSI16:1,2011-07-02T11:15:00Z,29.4012,-89.0355,1.0,26.828,11111222 
WAVCIS,ioos:station:WAVCIS:CSI16:1,2011-07-02T11:30:00Z,29.4012,-89.0355,1.0,27.264,11111222 
WAVCIS,ioos:station:WAVCIS:CSI16:1,2011-07-02T11:45:00Z,29.4012,-89.0355,1.0,27.651,11111222 
WAVCIS,ioos:station:WAVCIS:CSI16:1,2011-07-02T12:00:00Z,29.4012,-89.0355,1.0,28.384,11111222 
WAVCIS,ioos:station:WAVCIS:CSI16:1,2011-07-02T12:15:00Z,29.4012,-89.0355,1.0,27.749,11111222 
WAVCIS,ioos:station:WAVCIS:CSI16:1,2011-07-02T12:30:00Z,29.4012,-89.0355,1.0,30.23,11111222 
WAVCIS,ioos:station:WAVCIS:CSI16:1,2011-07-02T12:45:00Z,29.4012,-89.0355,1.0,28.755,11111222 
WAVCIS,ioos:station:WAVCIS:CSI16:1,2011-07-02T13:00:00Z,29.4012,-89.0355,1.0,28.892,11111222 
WAVCIS,ioos:station:WAVCIS:CSI16:1,2011-07-02T13:15:00Z,29.4012,-89.0355,1.0,29.391,11111222 
WAVCIS,ioos:station:WAVCIS:CSI16:1,2011-07-02T13:30:00Z,29.4012,-89.0355,1.0,30.793,11111222 
WAVCIS,ioos:station:WAVCIS:CSI16:1,2011-07-02T13:45:00Z,29.4012,-89.0355,1.0,31.143,11111222 
WAVCIS,ioos:station:WAVCIS:CSI16:1,2011-07-02T14:00:00Z,29.4012,-89.0355,1.0,31.615,11111222 
WAVCIS,ioos:station:WAVCIS:CSI16:1,2011-07-02T14:15:00Z,29.4012,-89.0355,1.0,30.68,11111222 
WAVCIS,ioos:station:WAVCIS:CSI16:1,2011-07-02T14:30:00Z,29.4012,-89.0355,1.0,31.303,11111222 
WAVCIS,ioos:station:WAVCIS:CSI16:1,2011-07-02T14:45:00Z,29.4012,-89.0355,1.0,30.767,11111222 
WAVCIS,ioos:station:WAVCIS:CSI16:1,2011-07-02T15:00:00Z,29.4012,-89.0355,1.0,30.224,11111222 
WAVCIS,ioos:station:WAVCIS:CSI16:1,2011-07-02T15:15:00Z,29.4012,-89.0355,1.0,28.973,11111222 
WAVCIS,ioos:station:WAVCIS:CSI16:1,2011-07-02T15:30:00Z,29.4012,-89.0355,1.0,29.57,11111222 
WAVCIS,ioos:station:WAVCIS:CSI16:1,2011-07-02T15:45:00Z,29.4012,-89.0355,1.0,29.83,11111222 
WAVCIS,ioos:station:WAVCIS:CSI16:1,2011-07-02T16:00:00Z,29.4012,-89.0355,1.0,29.661,11111222 
WAVCIS,ioos:station:WAVCIS:CSI16:1,2011-07-02T16:15:00Z,29.4012,-89.0355,1.0,29.815,11111222 
WAVCIS,ioos:station:WAVCIS:CSI16:1,2011-07-02T16:30:00Z,29.4012,-89.0355,1.0,30.037,11111222 
WAVCIS,ioos:station:WAVCIS:CSI16:1,2011-07-02T16:45:00Z,29.4012,-89.0355,1.0,29.184,11111222 
WAVCIS,ioos:station:WAVCIS:CSI16:1,2011-07-02T17:00:00Z,29.4012,-89.0355,1.0,29.511,11111222 
WAVCIS,ioos:station:WAVCIS:CSI16:1,2011-07-02T17:15:00Z,29.4012,-89.0355,1.0,29.444,11111222 
WAVCIS,ioos:station:WAVCIS:CSI16:1,2011-07-02T17:30:00Z,29.4012,-89.0355,1.0,29.249,11111222 
WAVCIS,ioos:station:WAVCIS:CSI16:1,2011-07-02T17:45:00Z,29.4012,-89.0355,1.0,29.279,11111222 
WAVCIS,ioos:station:WAVCIS:CSI16:1,2011-07-02T18:00:00Z,29.4012,-89.0355,1.0,29.342,11111222 
WAVCIS,ioos:station:WAVCIS:CSI16:1,2011-07-02T18:15:00Z,29.4012,-89.0355,1.0,29.87,11111222 
WAVCIS,ioos:station:WAVCIS:CSI16:1,2011-07-02T18:30:00Z,29.4012,-89.0355,1.0,29.193,11111222 
WAVCIS,ioos:station:WAVCIS:CSI16:1,2011-07-02T18:45:00Z,29.4012,-89.0355,1.0,29.038,11111222 
WAVCIS,ioos:station:WAVCIS:CSI16:1,2011-07-02T19:00:00Z,29.4012,-89.0355,1.0,28.778,11111222 
WAVCIS,ioos:station:WAVCIS:CSI16:1,2011-07-02T19:15:00Z,29.4012,-89.0355,1.0,28.221,11111222 
WAVCIS,ioos:station:WAVCIS:CSI16:1,2011-07-02T19:30:00Z,29.4012,-89.0355,1.0,29.05,11111222 
WAVCIS,ioos:station:WAVCIS:CSI16:1,2011-07-02T19:45:00Z,29.4012,-89.0355,1.0,28.176,11111222 
WAVCIS,ioos:station:WAVCIS:CSI16:1,2011-07-02T20:00:00Z,29.4012,-89.0355,1.0,27.996,11111222 
WAVCIS,ioos:station:WAVCIS:CSI16:1,2011-07-02T20:15:00Z,29.4012,-89.0355,1.0,27.984,11111222 
WAVCIS,ioos:station:WAVCIS:CSI16:1,2011-07-02T20:30:00Z,29.4012,-89.0355,1.0,27.256,11111222 
WAVCIS,ioos:station:WAVCIS:CSI16:1,2011-07-02T20:45:00Z,29.4012,-89.0355,1.0,27.095,11111222 
WAVCIS,ioos:station:WAVCIS:CSI16:1,2011-07-02T21:00:00Z,29.4012,-89.0355,1.0,26.691,11111222 
WAVCIS,ioos:station:WAVCIS:CSI16:1,2011-07-02T21:15:00Z,29.4012,-89.0355,1.0,26.396,11111222 
WAVCIS,ioos:station:WAVCIS:CSI16:1,2011-07-02T21:30:00Z,29.4012,-89.0355,1.0,26.316,11111222 
WAVCIS,ioos:station:WAVCIS:CSI16:1,2011-07-02T21:45:00Z,29.4012,-89.0355,1.0,26.329,11111222 
WAVCIS,ioos:station:WAVCIS:CSI16:1,2011-07-02T22:00:00Z,29.4012,-89.0355,1.0,26.251,11111222 
WAVCIS,ioos:station:WAVCIS:CSI16:1,2011-07-02T22:15:00Z,29.4012,-89.0355,1.0,25.924,11111222 
WAVCIS,ioos:station:WAVCIS:CSI16:1,2011-07-02T22:30:00Z,29.4012,-89.0355,1.0,26.016,11111222 
WAVCIS,ioos:station:WAVCIS:CSI16:1,2011-07-02T22:45:00Z,29.4012,-89.0355,1.0,25.836,11111222 
WAVCIS,ioos:station:WAVCIS:CSI16:1,2011-07-02T23:00:00Z,29.4012,-89.0355,1.0,25.622,11111222 
WAVCIS,ioos:station:WAVCIS:CSI16:1,2011-07-02T23:15:00Z,29.4012,-89.0355,1.0,25.479,11111222 
WAVCIS,ioos:station:WAVCIS:CSI16:1,2011-07-02T23:30:00Z,29.4012,-89.0355,1.0,25.465,11111222 
WAVCIS,ioos:station:WAVCIS:CSI16:1,2011-07-02T23:45:00Z,29.4012,-89.0355,1.0,25.149,11111222 
WAVCIS,ioos:station:WAVCIS:CSI16:1,2011-07-03T00:00:00Z,29.4012,-89.0355,1.0,24.645,11111222 
WAVCIS,ioos:station:WAVCIS:CSI16:1,2011-07-03T00:15:00Z,29.4012,-89.0355,1.0,24.199,11111222 
WAVCIS,ioos:station:WAVCIS:CSI16:1,2011-07-03T00:30:00Z,29.4012,-89.0355,1.0,23.723,11111222 
WAVCIS,ioos:station:WAVCIS:CSI16:1,2011-07-03T00:45:00Z,29.4012,-89.0355,1.0,23.853,11111222 
WAVCIS,ioos:station:WAVCIS:CSI16:1,2011-07-03T01:00:00Z,29.4012,-89.0355,1.0,23.072,11111222 
WAVCIS,ioos:station:WAVCIS:CSI16:1,2011-07-03T01:15:00Z,29.4012,-89.0355,1.0,22.405,11111222 
WAVCIS,ioos:station:WAVCIS:CSI16:1,2011-07-03T01:30:00Z,29.4012,-89.0355,1.0,22.297,11111222 
WAVCIS,ioos:station:WAVCIS:CSI16:1,2011-07-03T01:45:00Z,29.4012,-89.0355,1.0,21.463,11111222 
WAVCIS,ioos:station:WAVCIS:CSI16:1,2011-07-03T02:00:00Z,29.4012,-89.0355,1.0,17.381,11111222 
WAVCIS,ioos:station:WAVCIS:CSI16:1,2011-07-03T02:15:00Z,29.4012,-89.0355,1.0,19.744,11111222 
WAVCIS,ioos:station:WAVCIS:CSI16:1,2011-07-03T02:30:00Z,29.4012,-89.0355,1.0,18.992,11111222 
WAVCIS,ioos:station:WAVCIS:CSI16:1,2011-07-03T02:45:00Z,29.4012,-89.0355,1.0,16.987,11111222 
WAVCIS,ioos:station:WAVCIS:CSI16:1,2011-07-03T03:00:00Z,29.4012,-89.0355,1.0,17.291,11111222 
WAVCIS,ioos:station:WAVCIS:CSI16:1,2011-07-03T03:15:00Z,29.4012,-89.0355,1.0,19.224,11111222 
WAVCIS,ioos:station:WAVCIS:CSI16:1,2011-07-03T03:30:00Z,29.4012,-89.0355,1.0,21.277,11111222 
WAVCIS,ioos:station:WAVCIS:CSI16:1,2011-07-03T03:45:00Z,29.4012,-89.0355,1.0,23.743,11111222 
WAVCIS,ioos:station:WAVCIS:CSI16:1,2011-07-03T04:00:00Z,29.4012,-89.0355,1.0,25.27,11111222 
WAVCIS,ioos:station:WAVCIS:CSI16:1,2011-07-03T04:15:00Z,29.4012,-89.0355,1.0,24.409,11111222 
WAVCIS,ioos:station:WAVCIS:CSI16:1,2011-07-03T04:30:00Z,29.4012,-89.0355,1.0,23.868,11111222 
WAVCIS,ioos:station:WAVCIS:CSI16:1,2011-07-03T04:45:00Z,29.4012,-89.0355,1.0,23.795,11111222 
WAVCIS,ioos:station:WAVCIS:CSI16:1,2011-07-03T05:00:00Z,29.4012,-89.0355,1.0,24.633,11111222 
WAVCIS,ioos:station:WAVCIS:CSI16:1,2011-07-03T05:15:00Z,29.4012,-89.0355,1.0,25.614,11111222 
WAVCIS,ioos:station:WAVCIS:CSI16:1,2011-07-03T05:30:00Z,29.4012,-89.0355,1.0,25.788,11111222 
WAVCIS,ioos:station:WAVCIS:CSI16:1,2011-07-03T05:45:00Z,29.4012,-89.0355,1.0,25.715,11111222 
WAVCIS,ioos:station:WAVCIS:CSI16:1,2011-07-03T06:00:00Z,29.4012,-89.0355,1.0,26.349,11111222 
WAVCIS,ioos:station:WAVCIS:CSI16:1,2011-07-03T06:15:00Z,29.4012,-89.0355,1.0,26.507,11111222 
WAVCIS,ioos:station:WAVCIS:CSI16:1,2011-07-03T06:30:00Z,29.4012,-89.0355,1.0,26.551,11111222 
WAVCIS,ioos:station:WAVCIS:CSI16:1,2011-07-03T06:45:00Z,29.4012,-89.0355,1.0,26.26,11111222 
WAVCIS,ioos:station:WAVCIS:CSI16:1,2011-07-03T07:00:00Z,29.4012,-89.0355,1.0,26.432,11111222 
WAVCIS,ioos:station:WAVCIS:CSI16:1,2011-07-03T07:15:00Z,29.4012,-89.0355,1.0,26.438,11111222 
WAVCIS,ioos:station:WAVCIS:CSI16:1,2011-07-03T07:30:00Z,29.4012,-89.0355,1.0,26.61,11111222 
WAVCIS,ioos:station:WAVCIS:CSI16:1,2011-07-03T07:45:00Z,29.4012,-89.0355,1.0,26.63,11111222 
WAVCIS,ioos:station:WAVCIS:CSI16:1,2011-07-03T08:00:00Z,29.4012,-89.0355,1.0,26.772,11111222 
WAVCIS,ioos:station:WAVCIS:CSI16:1,2011-07-03T08:15:00Z,29.4012,-89.0355,1.0,26.969,11111222 
WAVCIS,ioos:station:WAVCIS:CSI16:1,2011-07-03T08:30:00Z,29.4012,-89.0355,1.0,27.082,11111222 
WAVCIS,ioos:station:WAVCIS:CSI16:1,2011-07-03T08:45:00Z,29.4012,-89.0355,1.0,27.099,11111222 
WAVCIS,ioos:station:WAVCIS:CSI16:1,2011-07-03T09:00:00Z,29.4012,-89.0355,1.0,27.097,11111222 
WAVCIS,ioos:station:WAVCIS:CSI16:1,2011-07-03T09:15:00Z,29.4012,-89.0355,1.0,27.257,11111222 
WAVCIS,ioos:station:WAVCIS:CSI16:1,2011-07-03T09:30:00Z,29.4012,-89.0355,1.0,27.29,11111222 
WAVCIS,ioos:station:WAVCIS:CSI16:1,2011-07-03T09:45:00Z,29.4012,-89.0355,1.0,27.338,11111222 
WAVCIS,ioos:station:WAVCIS:CSI16:1,2011-07-03T10:00:00Z,29.4012,-89.0355,1.0,27.392,11111222 
WAVCIS,ioos:station:WAVCIS:CSI16:1,2011-07-03T10:15:00Z,29.4012,-89.0355,1.0,27.432,11111222 
WAVCIS,ioos:station:WAVCIS:CSI16:1,2011-07-03T10:30:00Z,29.4012,-89.0355,1.0,27.538,11111222 
WAVCIS,ioos:station:WAVCIS:CSI16:1,2011-07-03T10:45:00Z,29.4012,-89.0355,1.0,27.786,11111222 
WAVCIS,ioos:station:WAVCIS:CSI16:1,2011-07-03T11:00:00Z,29.4012,-89.0355,1.0,28.062,11111222 
WAVCIS,ioos:station:WAVCIS:CSI16:1,2011-07-03T11:15:00Z,29.4012,-89.0355,1.0,28.037,11111222 
WAVCIS,ioos:station:WAVCIS:CSI16:1,2011-07-03T11:30:00Z,29.4012,-89.0355,1.0,28.013,11111222 
WAVCIS,ioos:station:WAVCIS:CSI16:1,2011-07-03T11:45:00Z,29.4012,-89.0355,1.0,27.876,11111222 
WAVCIS,ioos:station:WAVCIS:CSI16:1,2011-07-03T12:00:00Z,29.4012,-89.0355,1.0,28.09,11111222 
WAVCIS,ioos:station:WAVCIS:CSI16:1,2011-07-03T12:15:00Z,29.4012,-89.0355,1.0,28.017,11111222 
WAVCIS,ioos:station:WAVCIS:CSI16:1,2011-07-03T12:30:00Z,29.4012,-89.0355,1.0,27.942,11111222 
WAVCIS,ioos:station:WAVCIS:CSI16:1,2011-07-03T12:45:00Z,29.4012,-89.0355,1.0,28.042,11111222 
WAVCIS,ioos:station:WAVCIS:CSI16:1,2011-07-03T13:00:00Z,29.4012,-89.0355,1.0,28.288,11111222 
WAVCIS,ioos:station:WAVCIS:CSI16:1,2011-07-03T13:15:00Z,29.4012,-89.0355,1.0,28.413,11111222 
WAVCIS,ioos:station:WAVCIS:CSI16:1,2011-07-03T13:30:00Z,29.4012,-89.0355,1.0,28.149,11111222 
WAVCIS,ioos:station:WAVCIS:CSI16:1,2011-07-03T13:45:00Z,29.4012,-89.0355,1.0,28.002,11111222 
WAVCIS,ioos:station:WAVCIS:CSI16:1,2011-07-03T14:00:00Z,29.4012,-89.0355,1.0,27.987,11111222 
WAVCIS,ioos:station:WAVCIS:CSI16:1,2011-07-03T14:15:00Z,29.4012,-89.0355,1.0,28.589,11111222 
WAVCIS,ioos:station:WAVCIS:CSI16:1,2011-07-03T14:30:00Z,29.4012,-89.0355,1.0,28.408,11111222 
WAVCIS,ioos:station:WAVCIS:CSI16:1,2011-07-03T14:45:00Z,29.4012,-89.0355,1.0,28.235,11111222 
WAVCIS,ioos:station:WAVCIS:CSI16:1,2011-07-03T15:00:00Z,29.4012,-89.0355,1.0,28.101,11111222 
WAVCIS,ioos:station:WAVCIS:CSI16:1,2011-07-03T15:15:00Z,29.4012,-89.0355,1.0,27.775,11111222 